DAL1887 KJFK-TNCM

Flight info

Callsign DAL1887
Flight time 3h 36m
Altitude 37000
Route DCT SHIPP Y492 SQUAD/M076F370 DCT DARUX L456 HANCY/N0442F370 L456 THANK DCT SLUGO ULUBA1
Aircraft A21N/M-VGDW/C

Departure

Time 2026-05-09 14:56
Airport John F. Kennedy International Airport (KJFK)

Arrival

Time 2026-05-09 18:33
Airport Princess Juliana International Airport (TNCM)
Time Latitude Longitude Altitude Speed Heading
2026-05-09 14:38 40.63955 -73.78061 23 ft 0 kts 263°
2026-05-09 14:46 40.63956 -73.78049 27 ft 2 kts 261°
2026-05-09 14:47 40.63959 -73.78027 27 ft 2 kts 261°
2026-05-09 14:47 40.63961 -73.78006 25 ft 2 kts 259°
2026-05-09 14:47 40.63965 -73.77985 23 ft 2 kts 255°
2026-05-09 14:47 40.63970 -73.77965 26 ft 2 kts 241°
2026-05-09 14:48 40.63982 -73.77950 24 ft 2 kts 190°
2026-05-09 14:48 40.63990 -73.77949 26 ft 0 kts 175°
2026-05-09 14:48 40.63989 -73.77949 27 ft 0 kts 175°
2026-05-09 14:49 40.63944 -73.77941 25 ft 18 kts 173°
2026-05-09 14:49 40.63829 -73.77923 23 ft 17 kts 173°
2026-05-09 14:49 40.63713 -73.77904 25 ft 17 kts 173°
2026-05-09 14:50 40.63617 -73.77889 25 ft 5 kts 170°
2026-05-09 14:50 40.63601 -73.77883 25 ft 0 kts 161°
2026-05-09 14:50 40.63600 -73.77883 25 ft 1 kts 161°
2026-05-09 14:50 40.63593 -73.77879 25 ft 1 kts 156°
2026-05-09 14:51 40.63569 -73.77856 27 ft 8 kts 137°
2026-05-09 14:51 40.63526 -73.77761 25 ft 15 kts 114°
2026-05-09 14:51 40.63573 -73.77657 23 ft 13 kts 27°
2026-05-09 14:51 40.63640 -73.77597 26 ft 12 kts 17°
2026-05-09 14:52 40.63734 -73.77529 24 ft 19 kts 29°
2026-05-09 14:52 40.63872 -73.77422 23 ft 26 kts 31°
2026-05-09 14:52 40.64045 -73.77287 24 ft 32 kts 31°
2026-05-09 14:52 40.64221 -73.77150 26 ft 19 kts 30°
2026-05-09 14:53 40.64332 -73.77062 24 ft 19 kts 31°
2026-05-09 14:53 40.64453 -73.76992 24 ft 19 kts
2026-05-09 14:53 40.64580 -73.76932 23 ft 20 kts 31°
2026-05-09 14:53 40.64699 -73.76845 27 ft 20 kts 34°
2026-05-09 14:54 40.64813 -73.76750 25 ft 19 kts 32°
2026-05-09 14:54 40.64928 -73.76659 29 ft 19 kts 31°
2026-05-09 14:54 40.65045 -73.76568 24 ft 20 kts 30°
2026-05-09 14:54 40.65097 -73.76468 25 ft 8 kts 106°
2026-05-09 14:55 40.65072 -73.76411 28 ft 8 kts 130°
2026-05-09 14:55 40.65016 -73.76385 27 ft 10 kts 181°
2026-05-09 14:55 40.64939 -73.76422 26 ft 14 kts 207°
2026-05-09 14:55 40.64779 -73.76550 25 ft 54 kts 211°
2026-05-09 14:56 40.64262 -73.76950 24 ft 118 kts 210°
2026-05-09 14:56 40.63398 -73.77631 87 ft 166 kts 208°
2026-05-09 14:56 40.62350 -73.78462 501 ft 179 kts 209°
2026-05-09 14:56 40.61273 -73.79309 1022 ft 188 kts 212°
2026-05-09 14:57 40.60114 -73.80216 1493 ft 199 kts 213°
2026-05-09 14:57 40.58893 -73.81194 1995 ft 213 kts 214°
2026-05-09 14:57 40.57592 -73.82244 2795 ft 222 kts 214°
2026-05-09 14:57 40.56266 -73.83313 3730 ft 226 kts 214°
2026-05-09 14:58 40.54900 -73.84414 4505 ft 234 kts 213°
2026-05-09 14:58 40.53502 -73.85535 4903 ft 236 kts 213°
2026-05-09 14:58 40.52054 -73.86565 5013 ft 239 kts 200°
2026-05-09 14:58 40.50384 -73.86680 5254 ft 249 kts 172°
2026-05-09 14:59 40.48814 -73.85638 5503 ft 263 kts 144°
2026-05-09 14:59 40.47751 -73.83634 5801 ft 277 kts 115°
2026-05-09 14:59 40.47474 -73.81086 6444 ft 289 kts 93°
2026-05-09 14:59 40.47640 -73.78434 7186 ft 294 kts 88°
2026-05-09 15:00 40.47893 -73.75757 7940 ft 297 kts 89°
2026-05-09 15:00 40.47857 -73.73075 8715 ft 291 kts 106°
2026-05-09 15:00 40.47407 -73.70491 9521 ft 290 kts 113°
2026-05-09 15:00 40.46776 -73.67970 10276 ft 291 kts 117°
2026-05-09 15:01 40.45210 -73.62970 11749 ft 304 kts 121°
2026-05-09 15:01 40.44351 -73.60395 12532 ft 312 kts 121°
2026-05-09 15:01 40.43477 -73.57760 13337 ft 318 kts 120°
2026-05-09 15:02 40.42594 -73.55061 14107 ft 324 kts 120°
2026-05-09 15:02 40.41709 -73.52314 14835 ft 329 kts 120°
2026-05-09 15:02 40.40821 -73.49529 15562 ft 334 kts 119°
2026-05-09 15:02 40.39900 -73.46648 15963 ft 351 kts 120°
2026-05-09 15:03 40.38646 -73.43850 16241 ft 360 kts 135°
2026-05-09 15:03 40.37006 -73.41280 16539 ft 375 kts 139°
2026-05-09 15:03 40.35176 -73.38769 16922 ft 386 kts 142°
2026-05-09 15:03 40.33226 -73.36294 17461 ft 393 kts 143°
2026-05-09 15:04 40.31217 -73.33825 18078 ft 399 kts 143°
2026-05-09 15:04 40.29170 -73.31329 18658 ft 405 kts 143°
2026-05-09 15:06 40.15141 -73.13970 22533 ft 428 kts 143°
2026-05-09 15:06 40.12977 -73.11284 23078 ft 431 kts 143°
2026-05-09 15:06 40.10792 -73.08574 23607 ft 434 kts 143°
2026-05-09 15:06 40.08589 -73.05847 24027 ft 437 kts 143°
2026-05-09 15:07 40.06372 -73.03103 24458 ft 440 kts 143°
2026-05-09 15:07 40.04140 -73.00345 24883 ft 443 kts 143°
2026-05-09 15:07 40.01894 -72.97572 25292 ft 445 kts 143°
2026-05-09 15:07 39.99665 -72.94822 25683 ft 448 kts 143°
2026-05-09 15:08 39.97391 -72.92021 26065 ft 451 kts 143°
2026-05-09 15:08 39.92808 -72.86381 26847 ft 455 kts 143°
2026-05-09 15:08 39.90500 -72.83545 27218 ft 457 kts 143°
2026-05-09 15:09 39.88180 -72.80697 27580 ft 460 kts 143°
2026-05-09 15:10 39.71602 -72.60428 30031 ft 472 kts 143°
2026-05-09 15:11 39.69246 -72.57555 30451 ft 469 kts 143°
2026-05-09 15:11 39.66865 -72.54657 30761 ft 470 kts 143°
2026-05-09 15:11 39.64475 -72.51752 31049 ft 471 kts 143°
2026-05-09 15:11 39.62084 -72.48850 31346 ft 471 kts 144°
2026-05-09 15:12 39.59687 -72.45943 31652 ft 471 kts 144°
2026-05-09 15:12 39.57293 -72.43042 31956 ft 471 kts 144°
2026-05-09 15:12 39.54893 -72.40137 32214 ft 472 kts 144°
2026-05-09 15:12 39.52480 -72.37221 32429 ft 474 kts 144°
2026-05-09 15:13 39.50064 -72.34304 32693 ft 474 kts 144°
2026-05-09 15:13 39.47647 -72.31387 32971 ft 475 kts 144°
2026-05-09 15:13 39.45233 -72.28475 33235 ft 475 kts 145°
2026-05-09 15:13 39.42816 -72.25564 33491 ft 475 kts 145°
2026-05-09 15:14 39.40386 -72.22642 33637 ft 478 kts 145°
2026-05-09 15:14 39.37946 -72.19710 33857 ft 478 kts 145°
2026-05-09 15:14 39.35508 -72.16783 34099 ft 479 kts 145°
2026-05-09 15:14 39.33070 -72.13857 34315 ft 478 kts 146°
2026-05-09 15:15 39.30631 -72.10931 34543 ft 478 kts 146°
2026-05-09 15:15 39.28197 -72.08015 34769 ft 477 kts 146°
2026-05-09 15:15 39.25793 -72.05139 34973 ft 477 kts 146°
2026-05-09 15:15 39.23357 -72.02228 35174 ft 477 kts 146°
2026-05-09 15:16 39.20922 -71.99321 35366 ft 476 kts 146°
2026-05-09 15:16 39.18492 -71.96423 35560 ft 476 kts 146°
2026-05-09 15:16 39.16058 -71.93524 35755 ft 476 kts 146°
2026-05-09 15:16 39.13624 -71.90628 35901 ft 476 kts 147°
2026-05-09 15:17 39.08729 -71.84815 36116 ft 479 kts 147°
2026-05-09 15:17 39.06283 -71.81913 36304 ft 478 kts 147°
2026-05-09 15:17 39.03840 -71.79015 36484 ft 478 kts 147°
2026-05-09 15:18 39.01391 -71.76112 36603 ft 478 kts 147°
2026-05-09 15:18 38.98941 -71.73214 36667 ft 480 kts 147°
2026-05-09 15:18 38.96477 -71.70305 36783 ft 481 kts 147°
2026-05-09 15:18 38.94043 -71.67431 36950 ft 480 kts 147°
2026-05-09 15:19 38.91586 -71.64531 37084 ft 480 kts 147°
2026-05-09 15:19 38.89119 -71.61624 37096 ft 480 kts 147°
2026-05-09 15:19 38.84199 -71.55831 37092 ft 479 kts 148°
2026-05-09 15:20 38.76811 -71.47160 37100 ft 480 kts 148°
2026-05-09 15:21 38.71869 -71.41374 37104 ft 482 kts 148°
2026-05-09 15:21 38.66907 -71.35578 37110 ft 483 kts 148°
2026-05-09 15:22 38.61941 -71.29784 37103 ft 483 kts 148°
2026-05-09 15:22 38.56972 -71.23998 37109 ft 483 kts 148°
2026-05-09 15:23 38.52034 -71.18260 37107 ft 483 kts 148°
2026-05-09 15:23 38.47061 -71.12492 37088 ft 483 kts 149°
2026-05-09 15:24 38.42074 -71.06723 37114 ft 484 kts 149°
2026-05-09 15:24 38.37071 -71.00944 37121 ft 484 kts 149°
2026-05-09 15:25 38.32069 -70.95177 37124 ft 484 kts 149°
2026-05-09 15:25 38.27069 -70.89423 37124 ft 484 kts 149°
2026-05-09 15:26 38.19588 -70.80837 37080 ft 485 kts 150°
2026-05-09 15:26 38.14557 -70.75079 37130 ft 487 kts 149°
2026-05-09 15:27 38.09520 -70.69322 37136 ft 487 kts 150°
2026-05-09 15:27 38.04482 -70.63574 37134 ft 487 kts 150°
2026-05-09 15:28 37.99293 -70.58220 37142 ft 468 kts 162°
2026-05-09 15:28 37.93662 -70.54301 37143 ft 459 kts 166°
2026-05-09 15:29 37.87950 -70.50704 37142 ft 458 kts 167°
2026-05-09 15:29 37.82217 -70.47165 37149 ft 458 kts 167°
2026-05-09 15:30 37.76524 -70.43628 37149 ft 459 kts 167°
2026-05-09 15:30 37.70797 -70.40052 37151 ft 459 kts 167°
2026-05-09 15:31 37.65070 -70.36476 37153 ft 460 kts 167°
2026-05-09 15:31 37.59328 -70.32898 37154 ft 460 kts 167°
2026-05-09 15:32 37.53581 -70.29321 37154 ft 460 kts 167°
2026-05-09 15:32 37.47835 -70.25751 37157 ft 460 kts 167°
2026-05-09 15:33 37.42087 -70.22187 37125 ft 460 kts 167°
2026-05-09 15:33 37.36326 -70.18625 37157 ft 462 kts 167°
2026-05-09 15:34 37.30545 -70.15055 37162 ft 463 kts 167°
2026-05-09 15:34 37.24798 -70.11508 37162 ft 463 kts 167°
2026-05-09 15:35 37.19002 -70.07938 37165 ft 463 kts 167°
2026-05-09 15:35 37.13206 -70.04376 37170 ft 464 kts 167°
2026-05-09 15:36 37.07405 -70.00818 37170 ft 464 kts 167°
2026-05-09 15:36 37.01598 -69.97260 37170 ft 465 kts 167°
2026-05-09 15:37 36.95789 -69.93707 37171 ft 464 kts 167°
2026-05-09 15:37 36.89980 -69.90161 37142 ft 464 kts 168°
2026-05-09 15:38 36.84197 -69.86639 37171 ft 466 kts 168°
2026-05-09 15:38 36.78360 -69.83089 37173 ft 467 kts 168°
2026-05-09 15:39 36.72514 -69.79538 37176 ft 467 kts 168°
2026-05-09 15:39 36.66666 -69.75991 37177 ft 467 kts 168°
2026-05-09 15:40 36.60807 -69.72444 37177 ft 467 kts 168°
2026-05-09 15:40 36.54997 -69.68933 37177 ft 467 kts 168°
2026-05-09 15:41 36.49143 -69.65402 37180 ft 467 kts 168°
2026-05-09 15:41 36.43284 -69.61873 37180 ft 467 kts 168°
2026-05-09 15:42 36.37433 -69.58356 37177 ft 467 kts 168°
2026-05-09 15:42 36.31564 -69.54835 37178 ft 468 kts 168°
2026-05-09 15:43 36.25736 -69.51343 37174 ft 468 kts 168°
2026-05-09 15:43 36.19860 -69.47828 37172 ft 468 kts 168°
2026-05-09 15:44 36.13919 -69.45042 37118 ft 445 kts 180°
2026-05-09 15:44 36.07923 -69.43251 37190 ft 442 kts 182°
2026-05-09 15:45 36.01915 -69.41654 37189 ft 441 kts 183°
2026-05-09 15:45 35.95907 -69.40076 37189 ft 441 kts 182°
2026-05-09 15:46 35.89897 -69.38476 37192 ft 442 kts 182°
2026-05-09 15:46 35.83882 -69.36864 37192 ft 443 kts 182°
2026-05-09 15:47 35.77881 -69.35253 37195 ft 444 kts 182°
2026-05-09 15:47 35.71848 -69.33635 37195 ft 444 kts 182°
2026-05-09 15:48 35.65819 -69.32021 37192 ft 443 kts 182°
2026-05-09 15:48 35.59761 -69.30408 37194 ft 448 kts 182°
2026-05-09 15:49 35.53634 -69.28783 37192 ft 451 kts 182°
2026-05-09 15:49 35.47507 -69.27146 37195 ft 451 kts 182°
2026-05-09 15:50 35.42407 -69.25786 37195 ft 450 kts 182°
2026-05-09 15:50 35.36276 -69.24160 37195 ft 453 kts 181°
2026-05-09 15:51 35.30066 -69.22524 37196 ft 458 kts 181°
2026-05-09 15:51 35.23830 -69.20871 37194 ft 458 kts 181°
2026-05-09 15:52 35.14476 -69.18395 37156 ft 460 kts 181°
2026-05-09 15:53 35.08182 -69.16744 37197 ft 466 kts 180°
2026-05-09 15:53 35.01836 -69.15075 37194 ft 466 kts 180°
2026-05-09 15:54 34.95491 -69.13402 37192 ft 466 kts 180°
2026-05-09 15:54 34.89186 -69.11746 37148 ft 466 kts 180°
2026-05-09 15:55 34.82819 -69.10084 37195 ft 469 kts 180°
2026-05-09 15:55 34.76418 -69.08411 37194 ft 470 kts 179°
2026-05-09 15:56 34.70019 -69.06738 37194 ft 470 kts 179°
2026-05-09 15:56 34.63620 -69.05068 37169 ft 470 kts 179°
2026-05-09 15:57 34.57221 -69.03402 37192 ft 469 kts 179°
2026-05-09 15:57 34.50885 -69.01756 37196 ft 468 kts 179°
2026-05-09 15:58 34.44507 -69.00102 37189 ft 468 kts 179°
2026-05-09 15:58 34.38134 -68.98452 37137 ft 468 kts 179°
2026-05-09 15:59 34.31842 -68.96813 37191 ft 458 kts 179°
2026-05-09 15:59 34.25616 -68.95206 37195 ft 457 kts 180°
2026-05-09 16:00 34.19394 -68.93609 37194 ft 456 kts 180°
2026-05-09 16:00 34.13177 -68.92013 37195 ft 457 kts 180°
2026-05-09 16:01 34.06954 -68.90415 37192 ft 457 kts 180°
2026-05-09 16:01 34.00743 -68.88821 37189 ft 456 kts 180°
2026-05-09 16:02 33.94569 -68.87239 37187 ft 456 kts 180°
2026-05-09 16:02 33.85238 -68.84853 37181 ft 457 kts 180°
2026-05-09 16:03 33.79025 -68.83267 37192 ft 457 kts 180°
2026-05-09 16:03 33.72807 -68.81682 37186 ft 457 kts 180°
2026-05-09 16:04 33.66587 -68.80099 37184 ft 457 kts 180°
2026-05-09 16:04 33.60368 -68.78519 37180 ft 457 kts 180°
2026-05-09 16:05 33.54131 -68.76938 37184 ft 458 kts 180°
2026-05-09 16:05 33.47936 -68.75368 37184 ft 458 kts 180°
2026-05-09 16:06 33.41698 -68.73789 37184 ft 458 kts 180°
2026-05-09 16:06 33.35450 -68.72210 37163 ft 458 kts 180°
2026-05-09 16:07 33.29205 -68.70635 37189 ft 459 kts 180°
2026-05-09 16:07 33.22955 -68.69061 37186 ft 459 kts 180°
2026-05-09 16:08 33.16703 -68.67488 37186 ft 459 kts 180°
2026-05-09 16:08 33.10487 -68.65927 37181 ft 459 kts 180°
2026-05-09 16:09 33.04220 -68.64356 37181 ft 460 kts 180°
2026-05-09 16:09 32.97939 -68.62784 37181 ft 461 kts 180°
2026-05-09 16:10 32.91665 -68.61214 37181 ft 461 kts 180°
2026-05-09 16:10 32.85380 -68.59644 37181 ft 461 kts 180°
2026-05-09 16:11 32.79127 -68.58085 37183 ft 462 kts 180°
2026-05-09 16:11 32.72835 -68.56519 37184 ft 462 kts 180°
2026-05-09 16:12 32.66543 -68.54954 37181 ft 462 kts 180°
2026-05-09 16:12 32.60239 -68.53389 37178 ft 462 kts 180°
2026-05-09 16:13 32.53942 -68.51826 37177 ft 463 kts 180°
2026-05-09 16:13 32.47629 -68.50265 37173 ft 463 kts 180°
2026-05-09 16:14 32.41313 -68.48704 37173 ft 463 kts 180°
2026-05-09 16:14 32.35028 -68.47152 37173 ft 463 kts 180°
2026-05-09 16:15 32.28710 -68.45594 37166 ft 464 kts 180°
2026-05-09 16:15 32.22393 -68.44040 37173 ft 463 kts 180°
2026-05-09 16:16 32.16081 -68.42488 37170 ft 463 kts 180°
2026-05-09 16:16 32.09761 -68.40937 37171 ft 463 kts 180°
2026-05-09 16:17 32.03452 -68.39391 37147 ft 463 kts 179°
2026-05-09 16:17 31.97119 -68.37843 37175 ft 465 kts 179°
2026-05-09 16:18 31.90825 -68.36304 37169 ft 465 kts 179°
2026-05-09 16:18 31.84493 -68.34758 37170 ft 465 kts 179°
2026-05-09 16:19 31.78156 -68.33213 37170 ft 465 kts 179°
2026-05-09 16:19 31.71787 -68.31666 37173 ft 468 kts 179°
2026-05-09 16:20 31.65390 -68.30113 37170 ft 470 kts 179°
2026-05-09 16:20 31.58989 -68.28557 37170 ft 469 kts 179°
2026-05-09 16:21 31.52638 -68.27015 37169 ft 469 kts 179°
2026-05-09 16:21 31.46228 -68.25463 37167 ft 469 kts 179°
2026-05-09 16:22 31.39829 -68.23917 37168 ft 469 kts 179°
2026-05-09 16:22 31.33430 -68.22373 37163 ft 469 kts 179°
2026-05-09 16:23 31.27032 -68.20831 37165 ft 469 kts 179°
2026-05-09 16:23 31.20630 -68.19292 37163 ft 471 kts 179°
2026-05-09 16:24 31.14182 -68.17747 37165 ft 474 kts 179°
2026-05-09 16:24 31.07754 -68.16203 37163 ft 475 kts 179°
2026-05-09 16:25 31.02335 -68.14902 37170 ft 475 kts 179°
2026-05-09 16:25 30.94811 -68.13099 37159 ft 475 kts 178°
2026-05-09 16:26 30.88327 -68.11550 37162 ft 475 kts 178°
2026-05-09 16:26 30.81846 -68.10003 37166 ft 475 kts 178°
2026-05-09 16:27 30.75403 -68.08467 37159 ft 475 kts 178°
2026-05-09 16:27 30.68923 -68.06925 37128 ft 475 kts 178°
2026-05-09 16:28 30.62446 -68.05385 37159 ft 475 kts 178°
2026-05-09 16:28 30.55965 -68.03846 37157 ft 475 kts 178°
2026-05-09 16:29 30.49490 -68.02312 37157 ft 475 kts 178°
2026-05-09 16:29 30.43015 -68.00779 37156 ft 475 kts 178°
2026-05-09 16:30 30.36542 -67.99250 37153 ft 474 kts 178°
2026-05-09 16:30 30.31164 -67.97979 37154 ft 474 kts 178°
2026-05-09 16:31 30.23645 -67.96206 37154 ft 474 kts 178°
2026-05-09 16:31 30.17178 -67.94683 37154 ft 474 kts 178°
2026-05-09 16:32 30.11803 -67.93420 37150 ft 474 kts 178°
2026-05-09 16:32 30.04242 -67.91645 37154 ft 474 kts 178°
2026-05-09 16:33 29.97762 -67.90125 37151 ft 474 kts 178°
2026-05-09 16:33 29.91294 -67.88611 37151 ft 474 kts 178°
2026-05-09 16:34 29.84873 -67.87110 37143 ft 474 kts 177°
2026-05-09 16:34 29.78387 -67.85595 37155 ft 475 kts 177°
2026-05-09 16:35 29.71908 -67.84084 37154 ft 475 kts 177°
2026-05-09 16:35 29.65430 -67.82574 37154 ft 475 kts 177°
2026-05-09 16:36 29.53556 -67.79814 37154 ft 475 kts 177°
2026-05-09 16:37 29.47065 -67.78308 37148 ft 476 kts 177°
2026-05-09 16:37 29.40605 -67.76810 37149 ft 476 kts 177°
2026-05-09 16:38 29.34118 -67.75307 37159 ft 476 kts 177°
2026-05-09 16:38 29.27624 -67.73807 37154 ft 476 kts 176°
2026-05-09 16:39 29.21123 -67.72306 37156 ft 476 kts 176°
2026-05-09 16:39 29.14628 -67.70808 37153 ft 476 kts 177°
2026-05-09 16:40 29.08164 -67.69319 37152 ft 476 kts 177°
2026-05-09 16:42 28.82367 -67.63396 37157 ft 470 kts 176°
2026-05-09 16:42 28.75948 -67.61929 37157 ft 470 kts 176°
2026-05-09 16:43 28.69566 -67.60471 37160 ft 470 kts 176°
2026-05-09 16:43 28.63147 -67.59005 37160 ft 470 kts 176°
2026-05-09 16:44 28.56734 -67.57543 37160 ft 470 kts 176°
2026-05-09 16:44 28.50316 -67.56082 37160 ft 470 kts 176°
2026-05-09 16:45 28.43898 -67.54623 37150 ft 470 kts 176°
2026-05-09 16:45 28.37472 -67.53164 37158 ft 471 kts 176°
2026-05-09 16:46 28.31047 -67.51707 37166 ft 471 kts 176°
2026-05-09 16:46 28.24627 -67.50252 37160 ft 471 kts 176°
2026-05-09 16:47 28.18198 -67.48797 37140 ft 471 kts 176°
2026-05-09 16:47 28.11766 -67.47345 37163 ft 472 kts 176°
2026-05-09 16:48 28.05374 -67.45902 37162 ft 472 kts 176°
2026-05-09 16:48 27.98933 -67.44449 37163 ft 472 kts 176°
2026-05-09 16:49 27.92492 -67.42998 37163 ft 472 kts 176°
2026-05-09 16:50 27.82814 -67.40824 37163 ft 473 kts 175°
2026-05-09 16:50 27.76397 -67.39383 37161 ft 473 kts 175°
2026-05-09 16:51 27.69929 -67.37932 37160 ft 473 kts 175°
2026-05-09 16:51 27.63474 -67.36486 37161 ft 473 kts 175°
2026-05-09 16:52 27.57011 -67.35041 37159 ft 473 kts 175°
2026-05-09 16:52 27.50588 -67.33607 37162 ft 473 kts 175°
2026-05-09 16:53 27.44128 -67.32165 37156 ft 473 kts 175°
2026-05-09 16:53 27.37662 -67.30724 37159 ft 473 kts 175°
2026-05-09 16:54 27.31202 -67.29286 37143 ft 473 kts 175°
2026-05-09 16:54 27.24732 -67.27849 37162 ft 474 kts 175°
2026-05-09 16:55 27.18264 -67.26412 37162 ft 474 kts 175°
2026-05-09 16:55 27.11833 -67.24985 37159 ft 474 kts 175°
2026-05-09 16:56 27.05364 -67.23552 37159 ft 474 kts 175°
2026-05-09 16:56 26.98897 -67.22121 37161 ft 473 kts 174°
2026-05-09 16:57 26.92425 -67.20691 37166 ft 475 kts 174°
2026-05-09 16:57 26.85923 -67.19257 37162 ft 476 kts 174°
2026-05-09 16:58 26.79427 -67.17824 37160 ft 476 kts 174°
2026-05-09 16:58 26.72968 -67.16401 37143 ft 476 kts 174°
2026-05-09 16:59 26.66480 -67.14973 37162 ft 475 kts 174°
2026-05-09 16:59 26.59994 -67.13548 37157 ft 475 kts 174°
2026-05-09 17:00 26.53505 -67.12124 37140 ft 475 kts 174°
2026-05-09 17:00 26.47026 -67.10703 37160 ft 475 kts 174°
2026-05-09 17:01 26.40536 -67.09283 37158 ft 474 kts 174°
2026-05-09 17:01 26.34060 -67.07866 37156 ft 474 kts 174°
2026-05-09 17:02 26.27628 -67.06461 37157 ft 473 kts 174°
2026-05-09 17:02 26.21162 -67.05050 37157 ft 473 kts 174°
2026-05-09 17:03 26.14689 -67.03639 37149 ft 473 kts 174°
2026-05-09 17:05 25.88882 -66.98030 37154 ft 473 kts 173°
2026-05-09 17:05 25.82423 -66.96630 37154 ft 473 kts 174°
2026-05-09 17:06 25.75965 -66.95232 37154 ft 473 kts 173°
2026-05-09 17:06 25.69507 -66.93835 37154 ft 473 kts 173°
2026-05-09 17:07 25.63049 -66.92440 37154 ft 473 kts 174°
2026-05-09 17:07 25.56586 -66.91046 37154 ft 473 kts 174°
2026-05-09 17:08 25.50165 -66.89662 37151 ft 473 kts 173°
2026-05-09 17:08 25.40464 -66.87574 37149 ft 474 kts 173°
2026-05-09 17:09 25.33987 -66.86182 37150 ft 474 kts 173°
2026-05-09 17:09 25.27503 -66.84789 37151 ft 474 kts 173°
2026-05-09 17:10 25.21015 -66.83399 37151 ft 475 kts 173°
2026-05-09 17:10 25.14529 -66.82008 37147 ft 475 kts 173°
2026-05-09 17:11 25.08068 -66.80625 37149 ft 475 kts 173°
2026-05-09 17:11 25.01571 -66.79235 37148 ft 475 kts 173°
2026-05-09 17:12 24.95073 -66.77848 37144 ft 475 kts 173°
2026-05-09 17:12 24.88573 -66.76461 37146 ft 476 kts 173°
2026-05-09 17:13 24.82112 -66.75084 37150 ft 476 kts 173°
2026-05-09 17:13 24.75607 -66.73699 37146 ft 476 kts 173°
2026-05-09 17:14 24.69103 -66.72316 37148 ft 476 kts 173°
2026-05-09 17:14 24.62592 -66.70933 37143 ft 476 kts 173°
2026-05-09 17:15 24.56090 -66.69553 37141 ft 476 kts 173°
2026-05-09 17:15 24.49582 -66.68174 37152 ft 476 kts 173°
2026-05-09 17:17 24.23587 -66.62679 37140 ft 476 kts 172°
2026-05-09 17:18 24.17078 -66.61305 37142 ft 476 kts 172°
2026-05-09 17:18 24.10575 -66.59935 37139 ft 476 kts 172°
2026-05-09 17:19 24.04110 -66.58575 37139 ft 476 kts 172°
2026-05-09 17:19 23.97615 -66.57210 37138 ft 476 kts 172°
2026-05-09 17:20 23.91097 -66.55839 37142 ft 477 kts 172°
2026-05-09 17:20 23.84572 -66.54471 37134 ft 477 kts 172°
2026-05-09 17:21 23.78045 -66.53104 37136 ft 477 kts 172°
2026-05-09 17:21 23.71524 -66.51739 37131 ft 477 kts 171°
2026-05-09 17:22 23.64999 -66.50374 37141 ft 477 kts 171°
2026-05-09 17:22 23.58481 -66.49012 37140 ft 477 kts 171°
2026-05-09 17:23 23.52002 -66.47660 37138 ft 477 kts 171°
2026-05-09 17:23 23.45485 -66.46301 37130 ft 477 kts 171°
2026-05-09 17:25 23.25989 -66.42243 37129 ft 474 kts 171°
2026-05-09 17:25 23.20602 -66.41125 37129 ft 474 kts 171°
2026-05-09 17:26 23.14110 -66.39778 37121 ft 474 kts 171°
2026-05-09 17:26 23.07630 -66.38434 37127 ft 473 kts 171°
2026-05-09 17:27 23.01163 -66.37095 37129 ft 473 kts 171°
2026-05-09 17:27 22.94742 -66.35766 37129 ft 473 kts 171°
2026-05-09 17:28 22.88281 -66.34431 37127 ft 473 kts 171°
2026-05-09 17:28 22.81817 -66.33096 37129 ft 473 kts 171°
2026-05-09 17:29 22.75352 -66.31762 37129 ft 473 kts 171°
2026-05-09 17:29 22.68882 -66.30429 37123 ft 473 kts 171°
2026-05-09 17:30 22.62416 -66.29098 37130 ft 473 kts 171°
2026-05-09 17:30 22.55987 -66.27775 37125 ft 473 kts 171°
2026-05-09 17:31 22.49517 -66.26446 37121 ft 472 kts 171°
2026-05-09 17:32 22.33415 -66.23142 37120 ft 473 kts 171°
2026-05-09 17:33 22.26908 -66.21810 37121 ft 473 kts 171°
2026-05-09 17:33 22.20486 -66.20496 37117 ft 473 kts 171°
2026-05-09 17:34 22.14015 -66.19173 37122 ft 473 kts 171°
2026-05-09 17:36 21.85087 -66.13274 37113 ft 473 kts 171°
2026-05-09 17:36 21.78624 -66.11960 37112 ft 473 kts 171°
2026-05-09 17:37 21.72155 -66.10644 37110 ft 473 kts 170°
2026-05-09 17:37 21.65945 -66.08345 37111 ft 473 kts 150°
2026-05-09 17:38 21.60374 -66.04561 37104 ft 474 kts 145°
2026-05-09 17:39 21.52348 -65.98412 37108 ft 474 kts 144°
2026-05-09 17:39 21.46977 -65.94282 37109 ft 474 kts 144°
2026-05-09 17:40 21.41598 -65.90191 37111 ft 474 kts 144°
2026-05-09 17:40 21.36226 -65.86128 37106 ft 475 kts 144°
2026-05-09 17:41 21.30823 -65.82048 37105 ft 475 kts 144°
2026-05-09 17:41 21.25420 -65.77970 37099 ft 475 kts 144°
2026-05-09 17:42 21.20018 -65.73895 37107 ft 474 kts 144°
2026-05-09 17:42 21.14629 -65.69834 37105 ft 474 kts 144°
2026-05-09 17:43 21.09236 -65.65773 37101 ft 474 kts 144°
2026-05-09 17:43 21.03878 -65.61742 37098 ft 474 kts 144°
2026-05-09 17:44 20.98476 -65.57682 37102 ft 474 kts 144°
2026-05-09 17:44 20.93071 -65.53624 37103 ft 474 kts 144°
2026-05-09 17:45 20.87661 -65.49565 37099 ft 474 kts 144°
2026-05-09 17:45 20.82248 -65.45508 37096 ft 474 kts 144°
2026-05-09 17:46 20.76849 -65.41464 37096 ft 474 kts 144°
2026-05-09 17:46 20.71481 -65.37448 37094 ft 474 kts 144°
2026-05-09 17:47 20.66081 -65.33411 37094 ft 474 kts 144°
2026-05-09 17:47 20.60670 -65.29370 37105 ft 474 kts 144°
2026-05-09 17:48 20.55254 -65.25327 37094 ft 475 kts 144°
2026-05-09 17:48 20.49830 -65.21284 37091 ft 475 kts 144°
2026-05-09 17:49 20.44445 -65.17272 37091 ft 475 kts 144°
2026-05-09 17:49 20.39024 -65.13237 37092 ft 475 kts 144°
2026-05-09 17:50 20.33606 -65.09208 37092 ft 475 kts 144°
2026-05-09 17:50 20.25469 -65.03164 37090 ft 475 kts 144°
2026-05-09 17:51 20.20045 -64.99139 37089 ft 475 kts 144°
2026-05-09 17:51 20.14620 -64.95118 37090 ft 475 kts 144°
2026-05-09 17:52 20.09189 -64.91095 37088 ft 476 kts 144°
2026-05-09 17:52 20.03756 -64.87073 37089 ft 476 kts 144°
2026-05-09 17:53 19.98322 -64.83055 37085 ft 476 kts 144°
2026-05-09 17:53 19.92922 -64.79066 37087 ft 476 kts 144°
2026-05-09 17:54 19.87482 -64.75050 37082 ft 475 kts 144°
2026-05-09 17:54 19.82050 -64.71043 37087 ft 475 kts 144°
2026-05-09 17:55 19.76610 -64.67034 37085 ft 475 kts 144°
2026-05-09 17:55 19.71179 -64.63035 37086 ft 475 kts 144°
2026-05-09 17:56 19.65784 -64.59066 37082 ft 475 kts 144°
2026-05-09 17:57 19.57631 -64.53074 37077 ft 475 kts 144°
2026-05-09 17:57 19.52167 -64.49062 36373 ft 480 kts 144°
2026-05-09 17:57 19.49417 -64.47044 35588 ft 482 kts 144°
2026-05-09 17:58 19.46660 -64.45021 34861 ft 482 kts 144°
2026-05-09 17:58 19.43900 -64.42998 34179 ft 481 kts 144°
2026-05-09 17:58 19.41145 -64.40980 33389 ft 481 kts 144°
2026-05-09 17:58 19.38397 -64.38967 32598 ft 480 kts 144°
2026-05-09 17:59 19.35693 -64.36988 31957 ft 477 kts 144°
2026-05-09 17:59 19.32968 -64.34994 31317 ft 473 kts 144°
2026-05-09 17:59 19.30276 -64.33026 30715 ft 469 kts 144°
2026-05-09 17:59 19.27600 -64.31069 30180 ft 463 kts 144°
2026-05-09 18:00 19.24964 -64.29143 29593 ft 458 kts 144°
2026-05-09 18:00 19.22367 -64.27245 29066 ft 450 kts 144°
2026-05-09 18:00 19.19809 -64.25377 28571 ft 444 kts 144°
2026-05-09 18:00 19.17279 -64.23530 28061 ft 438 kts 144°
2026-05-09 18:01 19.14790 -64.21714 27563 ft 432 kts 144°
2026-05-09 18:01 19.12331 -64.19919 27072 ft 427 kts 144°
2026-05-09 18:01 19.09930 -64.18168 26576 ft 422 kts 144°
2026-05-09 18:01 19.07522 -64.16412 26091 ft 418 kts 144°
2026-05-09 18:02 19.05137 -64.14673 25603 ft 414 kts 144°
2026-05-09 18:02 19.02780 -64.12955 25122 ft 410 kts 144°
2026-05-09 18:02 19.00440 -64.11251 24637 ft 406 kts 144°
2026-05-09 18:02 18.98119 -64.09561 24169 ft 403 kts 144°
2026-05-09 18:03 18.95820 -64.07888 23696 ft 400 kts 144°
2026-05-09 18:03 18.93534 -64.06224 23150 ft 397 kts 144°
2026-05-09 18:03 18.91272 -64.04580 22652 ft 392 kts 144°
2026-05-09 18:03 18.89042 -64.02959 22194 ft 387 kts 144°
2026-05-09 18:04 18.86837 -64.01357 21727 ft 383 kts 144°
2026-05-09 18:04 18.84656 -63.99772 21262 ft 379 kts 144°
2026-05-09 18:04 18.82487 -63.98196 20817 ft 376 kts 144°
2026-05-09 18:04 18.80369 -63.96658 20365 ft 373 kts 144°
2026-05-09 18:05 18.78238 -63.95110 19920 ft 370 kts 144°
2026-05-09 18:05 18.76118 -63.93573 19473 ft 368 kts 144°
2026-05-09 18:05 18.74016 -63.92047 19022 ft 366 kts 144°
2026-05-09 18:05 18.71922 -63.90528 18582 ft 363 kts 144°
2026-05-09 18:06 18.69848 -63.89024 18095 ft 360 kts 144°
2026-05-09 18:06 18.67796 -63.87537 17637 ft 355 kts 144°
2026-05-09 18:06 18.65769 -63.86069 17203 ft 351 kts 143°
2026-05-09 18:06 18.63760 -63.84616 16769 ft 347 kts 143°
2026-05-09 18:07 18.61778 -63.83183 16337 ft 344 kts 143°
2026-05-09 18:07 18.59814 -63.81761 15919 ft 340 kts 143°
2026-05-09 18:07 18.57874 -63.80356 15503 ft 337 kts 142°
2026-05-09 18:07 18.55953 -63.78966 15086 ft 333 kts 143°
2026-05-09 18:08 18.54074 -63.77606 14684 ft 330 kts 142°
2026-05-09 18:08 18.52193 -63.76247 14282 ft 326 kts 142°
2026-05-09 18:08 18.50332 -63.74902 13884 ft 323 kts 142°
2026-05-09 18:08 18.48488 -63.73569 13444 ft 320 kts 142°
2026-05-09 18:09 18.46664 -63.72250 13040 ft 315 kts 142°
2026-05-09 18:09 18.44868 -63.70952 12657 ft 311 kts 143°
2026-05-09 18:09 18.43093 -63.69670 12276 ft 307 kts 142°
2026-05-09 18:09 18.41343 -63.68406 11899 ft 303 kts 143°
2026-05-09 18:10 18.39628 -63.67134 11528 ft 298 kts 138°
2026-05-09 18:10 18.38583 -63.66199 11196 ft 297 kts 136°
2026-05-09 18:10 18.36521 -63.64225 10468 ft 301 kts 135°
2026-05-09 18:10 18.35002 -63.62735 10194 ft 291 kts 135°
2026-05-09 18:11 18.33561 -63.61316 9964 ft 280 kts 135°
2026-05-09 18:11 18.32145 -63.59915 9504 ft 277 kts 134°
2026-05-09 18:11 18.30752 -63.58533 9101 ft 274 kts 135°
2026-05-09 18:11 18.29390 -63.57183 8726 ft 271 kts 135°
2026-05-09 18:12 18.28027 -63.55830 8337 ft 268 kts 134°
2026-05-09 18:12 18.26675 -63.54489 7955 ft 266 kts 134°
2026-05-09 18:12 18.25334 -63.53159 7587 ft 264 kts 134°
2026-05-09 18:12 18.24003 -63.51839 7207 ft 262 kts 134°
2026-05-09 18:13 18.22680 -63.50527 6846 ft 260 kts 134°
2026-05-09 18:13 18.21359 -63.49218 6469 ft 259 kts 134°
2026-05-09 18:13 18.20066 -63.47935 6095 ft 258 kts 134°
2026-05-09 18:13 18.18764 -63.46646 5738 ft 256 kts 134°
2026-05-09 18:14 18.17470 -63.45365 5353 ft 254 kts 134°
2026-05-09 18:14 18.16183 -63.44090 4932 ft 254 kts 134°
2026-05-09 18:14 18.14900 -63.42820 4557 ft 252 kts 134°
2026-05-09 18:14 18.13625 -63.41557 4198 ft 250 kts 134°
2026-05-09 18:15 18.12366 -63.40312 3848 ft 247 kts 134°
2026-05-09 18:15 18.11118 -63.39078 3487 ft 245 kts 134°
2026-05-09 18:15 18.09882 -63.37853 3165 ft 244 kts 134°
2026-05-09 18:15 18.08625 -63.36608 2925 ft 252 kts 134°
2026-05-09 18:16 18.07344 -63.35340 2707 ft 254 kts 134°
2026-05-09 18:16 18.06054 -63.34066 2473 ft 254 kts 134°
2026-05-09 18:16 18.04767 -63.32795 2273 ft 253 kts 134°
2026-05-09 18:16 18.03501 -63.31544 2051 ft 252 kts 134°
2026-05-09 18:17 18.02363 -63.30216 1822 ft 238 kts 120°
2026-05-09 18:17 18.01758 -63.28667 1591 ft 224 kts 97°
2026-05-09 18:17 18.01753 -63.27094 1492 ft 207 kts 83°
2026-05-09 18:17 18.01941 -63.25661 1491 ft 192 kts 81°
2026-05-09 18:18 18.02151 -63.24280 1502 ft 191 kts 81°
2026-05-09 18:18 18.02360 -63.22901 1509 ft 191 kts 81°
2026-05-09 18:18 18.02567 -63.21522 1587 ft 194 kts 82°
2026-05-09 18:18 18.02790 -63.20116 1296 ft 196 kts 82°
2026-05-09 18:19 18.03016 -63.18723 1047 ft 184 kts 83°
2026-05-09 18:19 18.03286 -63.16484 816 ft 134 kts 79°
2026-05-09 18:19 18.03436 -63.15581 650 ft 120 kts 82°
2026-05-09 18:20 18.03514 -63.14689 558 ft 131 kts 79°
2026-05-09 18:20 18.03725 -63.13695 405 ft 146 kts 80°
2026-05-09 18:20 18.03833 -63.12624 220 ft 149 kts 78°
2026-05-09 18:20 18.04019 -63.11478 618 ft 170 kts 83°
2026-05-09 18:21 18.03836 -63.10182 1406 ft 193 kts 112°
2026-05-09 18:21 18.03256 -63.08850 2297 ft 214 kts 107°
2026-05-09 18:21 18.02640 -63.07388 2755 ft 215 kts 115°
2026-05-09 18:21 18.01900 -63.06036 2998 ft 213 kts 120°
2026-05-09 18:22 18.01065 -63.04756 3008 ft 213 kts 126°
2026-05-09 18:22 18.00386 -63.04004 3010 ft 216 kts 137°
2026-05-09 18:22 17.99067 -63.03242 3006 ft 221 kts 161°
2026-05-09 18:22 17.97524 -63.03242 3011 ft 228 kts 194°
2026-05-09 18:23 17.96229 -63.04190 3007 ft 234 kts 233°
2026-05-09 18:23 17.95719 -63.05788 3012 ft 235 kts 272°
2026-05-09 18:23 17.95974 -63.07492 3017 ft 239 kts 285°
2026-05-09 18:23 17.96416 -63.09194 3013 ft 242 kts 287°
2026-05-09 18:24 17.96871 -63.10897 3010 ft 242 kts 286°
2026-05-09 18:24 17.97309 -63.12592 3008 ft 240 kts 286°
2026-05-09 18:24 17.97737 -63.14291 3010 ft 241 kts 286°
2026-05-09 18:25 17.98572 -63.17686 3009 ft 241 kts 285°
2026-05-09 18:25 17.98987 -63.19391 3012 ft 241 kts 285°
2026-05-09 18:25 17.99400 -63.21095 2790 ft 241 kts 285°
2026-05-09 18:25 17.99762 -63.22808 2423 ft 241 kts 276°
2026-05-09 18:26 17.99777 -63.24555 2113 ft 238 kts 267°
2026-05-09 18:26 17.99575 -63.26267 2012 ft 235 kts 251°
2026-05-09 18:26 17.98898 -63.27816 2006 ft 232 kts 243°
2026-05-09 18:26 17.98572 -63.29384 2025 ft 212 kts 276°
2026-05-09 18:27 17.99093 -63.30736 2004 ft 196 kts 316°
2026-05-09 18:27 18.00199 -63.31425 1986 ft 176 kts 356°
2026-05-09 18:27 18.01338 -63.31313 2007 ft 160 kts 22°
2026-05-09 18:27 18.02244 -63.30724 2002 ft 151 kts 54°
2026-05-09 18:28 18.02739 -63.29766 2017 ft 149 kts 72°
2026-05-09 18:28 18.02922 -63.28693 2006 ft 150 kts 85°
2026-05-09 18:28 18.02963 -63.27616 2008 ft 149 kts 88°
2026-05-09 18:28 18.02958 -63.26526 2003 ft 151 kts 91°
2026-05-09 18:29 18.02838 -63.25445 2065 ft 142 kts 99°
2026-05-09 18:29 18.02603 -63.24476 2033 ft 134 kts 100°
2026-05-09 18:29 18.02421 -63.23534 1901 ft 130 kts 95°
2026-05-09 18:29 18.02402 -63.22592 1730 ft 129 kts 81°
2026-05-09 18:30 18.02513 -63.21641 1517 ft 132 kts 82°
2026-05-09 18:30 18.02635 -63.20647 1523 ft 147 kts 80°
2026-05-09 18:30 18.02813 -63.19589 1404 ft 146 kts 79°
2026-05-09 18:30 18.02990 -63.18549 1260 ft 143 kts 81°
2026-05-09 18:31 18.03150 -63.17530 1100 ft 140 kts 82°
2026-05-09 18:31 18.03318 -63.16511 957 ft 143 kts 82°
2026-05-09 18:31 18.03451 -63.15503 839 ft 140 kts 83°
2026-05-09 18:31 18.03572 -63.14479 540 ft 144 kts 83°
2026-05-09 18:32 18.03734 -63.13429 379 ft 142 kts 82°
2026-05-09 18:32 18.03869 -63.12417 157 ft 142 kts 79°
2026-05-09 18:32 18.04020 -63.11409 26 ft 133 kts 82°
2026-05-09 18:32 18.04119 -63.10709 24 ft 53 kts 81°
2026-05-09 18:33 18.04113 -63.10527 25 ft 9 kts 99°
2026-05-09 18:33 18.04130 -63.10478 25 ft 5 kts 25°
2026-05-09 18:33 18.04156 -63.10499 27 ft 10 kts 282°
2026-05-09 18:33 18.04136 -63.10602 27 ft 19 kts 255°
2026-05-09 18:34 18.04110 -63.10771 24 ft 28 kts 262°
2026-05-09 18:34 18.04080 -63.10993 25 ft 28 kts 261°
2026-05-09 18:34 18.04075 -63.11130 28 ft 18 kts 300°
2026-05-09 18:34 18.04149 -63.11190 25 ft 7 kts 289°
2026-05-09 18:35 18.04149 -63.11281 24 ft 12 kts 294°
2026-05-09 18:35 18.04227 -63.11355 25 ft 21 kts 308°
2026-05-09 18:35 18.04256 -63.11418 27 ft 5 kts 312°
2026-05-09 18:35 18.04270 -63.11423 27 ft 3 kts 352°
2026-05-09 18:36 18.04301 -63.11427 25 ft 5 kts 352°
2026-05-09 18:36 18.04311 -63.11429 28 ft 1 kts 351°
2026-05-09 18:36 18.04316 -63.11430 28 ft 0 kts 351°